Location: LDNL
(36.4545°S, 141.6685°E)
Time: 11:48:22
(UTC+10:00)

Tiros 1 despin weight - Pass Details

Date: 14 August 2022
Orbit: 590 x 639 km, 48.2° (Epoch: 23 September)

Event Time Altitude Azimuth Distance (km) Brightness Sun altitude
Rises 22:31:45 0° 324° (NW) 2,861 - -54.2°
Reaches altitude 10° 22:34:05 10° 329° (NNW) 1,971 - -54.6°
Maximum altitude 22:38:25 46° 42° (NE) 845 - -55.3°
Drops below altitude 10° 22:42:52 10° 115° (ESE) 2,021 - -56.1°
Sets 22:45:17 0° 120° (ESE) 2,941 - -56.5°
